Date,TemperatureHighF,TemperatureAvgF,TemperatureLowF,DewpointHighF,DewpointAvgF,DewpointLowF,HumidityHigh,HumidityAvg,HumidityLow,PressureMaxIn,PressureMinIn,WindSpeedMaxMPH,WindSpeedAvgMPH,GustSpeedMaxMPH,PrecipitationSumIn
2013-10-1,76.1,65.6,48.0,65.8,50.5,31.9,98,65,20,30.02,29.62,7,2,0,0.00
2013-10-2,76.3,59.8,41.5,62.8,45.8,34.3,98,69,23,30.09,29.86,9,3,0,0.13
2013-10-3,63.7,58.2,56.5,63.1,57.6,55.9,98,98,98,29.94,29.83,6,2,0,0.20
2013-10-4,57.6,56.6,55.4,57.0,56.0,54.8,98,98,98,30.00,29.86,8,4,0,0.47
2013-10-5,62.1,54.7,42.4,61.5,54.1,41.9,98,98,97,29.91,29.75,13,2,0,0.22
2013-10-6,57.7,47.7,40.5,57.1,47.2,40.0,98,98,98,29.87,29.70,4,1,0,0.05
2013-10-7,68.4,52.7,41.7,58.1,46.9,41.2,98,84,43,30.01,29.86,5,1,0,0.01
2013-10-8,76.6,61.2,44.2,53.5,48.4,43.7,98,68,36,30.01,29.88,9,3,0,0.00
2013-10-9,77.4,64.7,55.4,58.3,54.3,49.9,98,72,41,30.08,29.96,7,3,0,0.00
2013-10-10,78.6,69.2,58.3,58.6,53.8,48.4,98,61,39,29.99,29.92,10,4,0,0.00
2013-10-11,74.5,64.9,53.8,67.0,58.7,53.2,98,83,57,29.92,29.67,14,5,0,0.09
2013-10-12,58.3,49.9,41.5,57.7,48.5,41.0,98,95,64,30.20,29.74,9,3,0,0.00
2013-10-13,62.4,47.2,36.5,49.1,40.1,36.0,98,80,39,30.47,30.21,3,1,0,0.00
2013-10-14,54.7,47.6,38.3,51.8,44.4,37.8,98,90,61,30.44,29.98,8,4,0,0.29
2013-10-15,53.8,49.7,46.8,53.2,49.2,46.3,98,98,98,29.98,29.70,9,3,0,0.73
2013-10-16,55.6,45.2,35.1,49.7,43.7,34.6,98,95,71,29.99,29.82,5,1,0,0.01
2013-10-17,61.0,45.6,34.3,50.1,42.3,33.8,98,90,56,29.91,29.78,4,1,0,0.10
2013-10-18,55.6,43.8,36.0,48.0,38.4,31.9,98,84,42,30.00,29.86,4,2,0,0.13
2013-10-19,48.4,38.8,32.2,45.7,37.8,31.7,98,97,77,29.87,29.70,6,1,0,0.09
2013-10-20,48.6,37.3,28.6,46.6,36.6,28.1,98,97,87,29.88,29.62,5,2,0,0.07
2013-10-21,38.7,33.8,24.6,38.0,28.0,24.1,98,80,59,29.99,29.89,6,2,0,0.00
2013-10-22,41.4,33.0,22.8,37.3,31.0,22.3,98,93,76,30.05,29.97,3,1,0,0.00
2013-10-23,39.7,34.9,30.6,36.7,29.3,23.2,98,81,60,30.12,30.01,3,1,0,0.00
2013-10-24,46.2,37.2,31.8,35.1,30.4,25.0,98,77,59,30.35,30.13,5,1,0,0.00
2013-10-25,56.7,42.9,24.4,45.9,36.5,23.9,98,80,57,30.36,29.79,9,2,0,0.00
2013-10-26,51.3,43.6,33.3,46.6,35.1,31.1,96,73,54,30.12,29.79,5,2,0,0.00
2013-10-27,61.9,41.4,26.6,38.0,33.2,26.1,98,76,38,30.15,29.82,6,1,0,0.00
2013-10-28,45.1,36.5,29.5,35.0,28.1,22.8,98,73,47,30.46,30.15,8,3,0,0.00
2013-10-29,41.9,37.2,29.1,40.0,32.7,22.8,98,84,71,30.43,30.11,6,3,0,0.03
2013-10-30,49.5,44.8,39.6,49.0,44.3,39.1,98,98,98,30.10,29.69,5,2,0,0.10
2013-10-31,50.2,43.6,39.9,49.7,43.1,39.4,98,98,98,29.67,29.40,7,2,0,0.01